Weather in Sary

Russia / Chelyabinsk Oblast     55°40′59″N   61°20′20″E
temp.,
°C
wind,
m/s
gust,
m/s
humid.,
%
clouds,
%
prec.,
mm/h
press.,
hPa
HPBL,
m
8 may, sat
sat823:00+12ssw36495 0.0 101975
02:00+10ssw345299 0.0 101940
05:00+10ssw2251100 0.0 101918
08:00+13s2346100 0.0 1018155
11:00+18s3333100 0.0 1018889
14:00+19sse3228100 0.0 10172273
17:00+19ese2128100 0.0 10162055
20:00+16ne2241100 0.0 101613
9 may, sun
sun923:00+13nne1141100 0.0 101610
02:00+12n3351100 0.0 101632
05:00+11n2256100 0.0 101717
08:00+13n2363100 0.0 1017117
11:00+18nne3343100 0.0 1016534
14:00+20ne353275 0.0 10162185
17:00+21ene553184 0.0 10162393
20:00+17ene2345100 0.0 101721
10 may, mon
mon1023:00+15nne1250100 0.0 101811
02:00+13nw225856 0.0 101911
05:00+11ne226422 0.0 102113
08:00+15ene236063 0.0 1022284
11:00+19ene34435 0.0 10221410
14:00+21ene45352 0.0 10222165
17:00+21e44326 0.0 10222313
20:00+17ese474625 0.0 1023143
11 may, tue
tue1123:00+13se345044 0.0 102450
02:00+12ssw3351100 0.0 102433
05:00+12sw3452100 0.0 102467
08:00+15ssw3652100 0.0 1024193
11:00+18nw3546100 0.0 1024789
14:00+15nne236791 0.2 1024493
17:00+18nnw565294 0.8 10231625
20:00+15nnw365324 0.0 1024155
12 may, wed
wed1223:00+10n39737 0.0 1027238
02:00+9nnw347919 0.0 102862
05:00+8nnw378178 0.0 1028132
08:00+12n4758100 0.0 1029447
11:00+16n46375 0.0 10281535
14:00+19n573487 0.0 10272004
17:00+18n6740100 0.0 10261691
20:00+12nne4670100 0.1 1028317